Time,TemperatureF,DewpointF,PressureIn,WindDirection,WindDirectionDegrees,WindSpeedMPH,WindSpeedGustMPH,Humidity,HourlyPrecipIn,Conditions,Clouds,dailyrainin,SoftwareType,DateUTC
2013-03-22 00:12:00,64.6,64.0,29.52,ENE,67,2.7,-999.0,98,-99.99,,,0.00,Acu-Link.com,2013-03-22 05:12:00,
2013-03-22 00:28:00,64.0,63.5,29.52,SSE,157,4.3,-999.0,98,-99.99,,,0.00,Acu-Link.com,2013-03-22 05:28:00,
2013-03-22 00:43:00,63.9,63.3,29.52,ESE,112,3.8,-999.0,98,-99.99,,,0.00,Acu-Link.com,2013-03-22 05:43:00,
2013-03-22 00:58:00,63.5,62.9,29.52,SSE,157,1.6,-999.0,98,-99.99,,,0.00,Acu-Link.com,2013-03-22 05:58:00,
2013-03-22 01:13:00,63.0,62.4,29.52,South,180,4.7,-999.0,98,-99.99,,,0.00,Acu-Link.com,2013-03-22 06:13:00,
2013-03-22 01:28:00,62.6,62.0,29.51,South,180,6.3,-999.0,98,-99.99,,,0.00,Acu-Link.com,2013-03-22 06:28:00,
2013-03-22 01:44:00,62.4,61.8,29.51,South,180,4.3,-999.0,98,-99.99,,,0.00,Acu-Link.com,2013-03-22 06:44:00,
2013-03-22 01:59:00,62.2,61.7,29.51,South,180,6.7,-999.0,98,-99.99,,,0.00,Acu-Link.com,2013-03-22 06:59:00,
2013-03-22 02:14:00,61.7,61.1,29.51,SSE,157,2.7,-999.0,98,-99.99,,,0.00,Acu-Link.com,2013-03-22 07:14:00,
2013-03-22 02:29:00,61.3,60.8,29.52,South,180,4.7,-999.0,98,-99.99,,,0.00,Acu-Link.com,2013-03-22 07:29:00,
2013-03-22 02:44:00,61.0,60.4,29.52,SE,135,2.7,-999.0,98,-99.99,,,0.00,Acu-Link.com,2013-03-22 07:44:00,
2013-03-22 03:00:00,60.6,60.1,29.51,SSE,157,2.2,-999.0,98,-99.99,,,0.00,Acu-Link.com,2013-03-22 08:00:00,
2013-03-22 03:15:00,59.9,59.3,29.52,SE,135,2.2,-999.0,98,-99.99,,,0.00,Acu-Link.com,2013-03-22 08:15:00,
2013-03-22 03:30:00,59.2,58.6,29.52,ESE,112,0.0,-999.0,98,-99.99,,,0.00,Acu-Link.com,2013-03-22 08:30:00,
2013-03-22 03:45:00,58.3,57.7,29.51,SSE,157,0.0,-999.0,98,-99.99,,,0.00,Acu-Link.com,2013-03-22 08:45:00,
2013-03-22 04:00:00,57.9,57.4,29.52,South,180,1.1,-999.0,98,-99.99,,,0.00,Acu-Link.com,2013-03-22 09:00:00,
2013-03-22 04:15:00,57.2,56.6,29.51,South,180,2.2,-999.0,98,-99.99,,,0.00,Acu-Link.com,2013-03-22 09:15:00,
2013-03-22 04:31:00,56.5,55.9,29.51,South,180,0.0,-999.0,98,-99.99,,,0.00,Acu-Link.com,2013-03-22 09:31:00,
2013-03-22 05:01:00,53.8,53.2,29.53,ENE,67,0.0,-999.0,98,-99.99,,,0.00,Acu-Link.com,2013-03-22 10:01:00,
2013-03-22 05:16:00,53.2,52.7,29.53,SSE,157,0.0,-999.0,98,-99.99,,,0.00,Acu-Link.com,2013-03-22 10:16:00,
2013-03-22 05:31:00,52.9,52.3,29.53,SSE,157,2.2,-999.0,98,-99.99,,,0.00,Acu-Link.com,2013-03-22 10:31:00,
2013-03-22 05:47:00,54.1,52.2,29.53,SSE,157,1.6,-999.0,93,-99.99,,,0.00,Acu-Link.com,2013-03-22 10:47:00,
2013-03-22 06:02:00,53.8,50.3,29.53,South,180,0.0,-999.0,88,-99.99,,,0.00,Acu-Link.com,2013-03-22 11:02:00,
2013-03-22 06:17:00,52.9,50.0,29.54,South,180,0.0,-999.0,90,-99.99,,,0.00,Acu-Link.com,2013-03-22 11:17:00,
2013-03-22 06:32:00,51.8,51.3,29.54,South,180,0.0,-999.0,98,-99.99,,,0.00,Acu-Link.com,2013-03-22 11:32:00,
2013-03-22 06:47:00,50.5,50.0,29.55,NE,45,0.0,-999.0,98,-99.99,,,0.00,Acu-Link.com,2013-03-22 11:47:00,
2013-03-22 07:03:00,50.2,49.6,29.57,SSE,157,1.1,-999.0,98,-99.99,,,0.00,Acu-Link.com,2013-03-22 12:03:00,
2013-03-22 07:18:00,50.7,48.5,29.57,NE,45,0.0,-999.0,92,-99.99,,,0.00,Acu-Link.com,2013-03-22 12:18:00,
2013-03-22 07:33:00,50.7,46.4,29.59,SSE,157,0.0,-999.0,85,-99.99,,,0.00,Acu-Link.com,2013-03-22 12:33:00,
2013-03-22 07:48:00,54.9,40.8,29.60,NNW,337,6.7,-999.0,59,-99.99,,,0.00,Acu-Link.com,2013-03-22 12:48:00,
2013-03-22 08:04:00,52.2,51.6,29.63,NNW,337,4.7,-999.0,98,-99.99,,,0.00,Acu-Link.com,2013-03-22 13:04:00,
2013-03-22 08:19:00,51.3,50.7,29.64,North,0,5.8,-999.0,98,-99.99,,,0.00,Acu-Link.com,2013-03-22 13:19:00,
2013-03-22 08:34:00,49.8,49.3,29.65,WSW,247,4.3,-999.0,98,-99.99,,,0.00,Acu-Link.com,2013-03-22 13:34:00,
2013-03-22 08:49:00,49.3,48.7,29.66,West,270,4.7,-999.0,98,-99.99,,,0.00,Acu-Link.com,2013-03-22 13:49:00,
2013-03-22 09:04:00,50.0,49.5,29.67,North,0,5.8,-999.0,98,-99.99,,,0.00,Acu-Link.com,2013-03-22 14:04:00,
2013-03-22 09:20:00,50.5,50.0,29.66,NNE,22,5.1,-999.0,98,-99.99,,,0.00,Acu-Link.com,2013-03-22 14:20:00,
2013-03-22 09:35:00,51.3,50.7,29.67,NNW,337,5.1,-999.0,98,-99.99,,,0.00,Acu-Link.com,2013-03-22 14:35:00,
2013-03-22 09:50:00,53.4,51.7,29.68,NNE,22,9.8,-999.0,94,-99.99,,,0.00,Acu-Link.com,2013-03-22 14:50:00,
2013-03-22 10:05:00,54.7,52.1,29.69,NE,45,3.8,-999.0,91,-99.99,,,0.00,Acu-Link.com,2013-03-22 15:05:00,
2013-03-22 10:20:00,55.4,52.2,29.69,NNE,22,5.1,-999.0,89,-99.99,,,0.00,Acu-Link.com,2013-03-22 15:20:00,
2013-03-22 10:36:00,55.0,52.2,29.70,NNW,337,6.7,-999.0,90,-99.99,,,0.00,Acu-Link.com,2013-03-22 15:36:00,
2013-03-22 11:06:00,54.0,51.7,29.70,North,0,5.1,-999.0,92,-99.99,,,0.00,Acu-Link.com,2013-03-22 16:06:00,
2013-03-22 11:21:00,55.6,51.5,29.70,WNW,292,3.1,-999.0,86,-99.99,,,0.00,Acu-Link.com,2013-03-22 16:21:00,
2013-03-22 11:36:00,56.7,52.8,29.70,North,0,6.7,-999.0,87,-99.99,,,0.00,Acu-Link.com,2013-03-22 16:36:00,
2013-03-22 11:52:00,58.6,52.5,29.71,North,0,7.8,-999.0,80,-99.99,,,0.00,Acu-Link.com,2013-03-22 16:52:00,
2013-03-22 12:07:00,57.9,51.8,29.71,NE,45,4.3,-999.0,80,-99.99,,,0.00,Acu-Link.com,2013-03-22 17:07:00,
2013-03-22 12:22:00,58.3,52.5,29.71,NE,45,3.1,-999.0,81,-99.99,,,0.00,Acu-Link.com,2013-03-22 17:22:00,
2013-03-22 12:37:00,57.7,52.6,29.71,NE,45,5.1,-999.0,83,-99.99,,,0.00,Acu-Link.com,2013-03-22 17:37:00,
2013-03-22 12:53:00,59.2,52.3,29.70,ENE,67,4.3,-999.0,78,-99.99,,,0.00,Acu-Link.com,2013-03-22 17:53:00,
2013-03-22 13:08:00,60.6,53.0,29.69,NNW,337,8.3,-999.0,76,-99.99,,,0.00,Acu-Link.com,2013-03-22 18:08:00,
2013-03-22 13:23:00,61.3,52.6,29.69,NE,45,6.3,-999.0,73,-99.99,,,0.00,Acu-Link.com,2013-03-22 18:23:00,
2013-03-22 13:38:00,63.3,52.6,29.68,ENE,67,4.3,-999.0,68,-99.99,,,0.00,Acu-Link.com,2013-03-22 18:38:00,
2013-03-22 13:53:00,62.8,52.8,29.68,North,0,4.3,-999.0,70,-99.99,,,0.00,Acu-Link.com,2013-03-22 18:53:00,
2013-03-22 14:09:00,64.2,53.4,29.67,North,0,6.7,-999.0,68,-99.99,,,0.00,Acu-Link.com,2013-03-22 19:09:00,
2013-03-22 14:24:00,64.9,52.5,29.67,NW,315,4.3,-999.0,64,-99.99,,,0.00,Acu-Link.com,2013-03-22 19:24:00,
2013-03-22 14:39:00,65.7,53.6,29.67,West,270,4.7,-999.0,65,-99.99,,,0.00,Acu-Link.com,2013-03-22 19:39:00,
2013-03-22 14:54:00,66.4,53.8,29.66,NE,45,9.4,-999.0,64,-99.99,,,0.00,Acu-Link.com,2013-03-22 19:54:00,
2013-03-22 15:09:00,65.8,52.9,29.66,NE,45,8.3,-999.0,63,-99.99,,,0.00,Acu-Link.com,2013-03-22 20:09:00,
2013-03-22 15:25:00,66.0,53.1,29.65,NNW,337,5.1,-999.0,63,-99.99,,,0.00,Acu-Link.com,2013-03-22 20:25:00,
2013-03-22 15:40:00,67.1,52.7,29.65,NNW,337,6.7,-999.0,60,-99.99,,,0.00,Acu-Link.com,2013-03-22 20:40:00,
2013-03-22 15:55:00,65.3,51.9,29.65,North,0,5.8,-999.0,62,-99.99,,,0.00,Acu-Link.com,2013-03-22 20:55:00,
2013-03-22 16:10:00,64.4,52.0,29.65,West,270,5.1,-999.0,64,-99.99,,,0.00,Acu-Link.com,2013-03-22 21:10:00,
2013-03-22 16:25:00,64.4,52.0,29.67,South,180,3.8,-999.0,64,-99.99,,,0.00,Acu-Link.com,2013-03-22 21:25:00,
2013-03-22 16:56:00,62.1,51.4,29.66,North,0,4.7,-999.0,68,-99.99,,,0.00,Acu-Link.com,2013-03-22 21:56:00,
2013-03-22 17:11:00,62.4,51.3,29.66,NE,45,4.7,-999.0,67,-99.99,,,0.00,Acu-Link.com,2013-03-22 22:11:00,
2013-03-22 17:42:00,63.0,51.4,29.67,North,0,3.8,-999.0,66,-99.99,,,0.00,Acu-Link.com,2013-03-22 22:42:00,
2013-03-22 17:57:00,61.7,51.0,29.67,NNE,22,5.1,-999.0,68,-99.99,,,0.00,Acu-Link.com,2013-03-22 22:57:00,
2013-03-22 18:12:00,59.4,50.3,29.66,NNE,22,5.8,-999.0,72,-99.99,,,0.00,Acu-Link.com,2013-03-22 23:12:00,
2013-03-22 18:27:00,58.3,49.7,29.67,NE,45,5.8,-999.0,73,-99.99,,,0.00,Acu-Link.com,2013-03-22 23:27:00,
2013-03-22 18:42:00,55.8,49.3,29.68,NE,45,6.3,-999.0,79,-99.99,,,0.00,Acu-Link.com,2013-03-22 23:42:00,
2013-03-22 18:58:00,54.3,48.9,29.68,NNE,22,6.3,-999.0,82,-99.99,,,0.00,Acu-Link.com,2013-03-22 23:58:00,
2013-03-22 19:13:00,54.1,48.8,29.68,NNE,22,7.4,-999.0,82,-99.99,,,0.00,Acu-Link.com,2013-03-23 00:13:00,
2013-03-22 19:28:00,53.2,48.5,29.68,NNW,337,5.1,-999.0,84,-99.99,,,0.00,Acu-Link.com,2013-03-23 00:28:00,
2013-03-22 19:43:00,52.0,48.2,29.68,NE,45,4.3,-999.0,87,-99.99,,,0.00,Acu-Link.com,2013-03-23 00:43:00,
2013-03-22 19:58:00,51.4,48.6,29.68,NNE,22,3.1,-999.0,90,-99.99,,,0.00,Acu-Link.com,2013-03-23 00:58:00,
2013-03-22 20:14:00,50.7,48.5,29.69,NNE,22,3.1,-999.0,92,-99.99,,,0.00,Acu-Link.com,2013-03-23 01:14:00,
2013-03-22 20:29:00,50.4,48.4,29.69,NNE,22,4.3,-999.0,93,-99.99,,,0.00,Acu-Link.com,2013-03-23 01:29:00,
2013-03-22 20:44:00,50.0,48.3,29.70,NNE,22,4.7,-999.0,94,-99.99,,,0.00,Acu-Link.com,2013-03-23 01:44:00,
2013-03-22 20:59:00,49.5,48.1,29.70,ENE,67,5.8,-999.0,95,-99.99,,,0.00,Acu-Link.com,2013-03-23 01:59:00,
2013-03-22 21:14:00,49.1,48.0,29.70,NE,45,4.7,-999.0,96,-99.99,,,0.00,Acu-Link.com,2013-03-23 02:14:00,
2013-03-22 21:30:00,48.7,48.2,29.70,NE,45,6.7,-999.0,98,-99.99,,,0.00,Acu-Link.com,2013-03-23 02:30:00,
2013-03-22 21:45:00,48.6,48.0,29.70,NE,45,5.1,-999.0,98,-99.99,,,0.00,Acu-Link.com,2013-03-23 02:45:00,
2013-03-22 22:00:00,48.2,47.7,29.71,NNE,22,5.8,-999.0,98,-99.99,,,0.00,Acu-Link.com,2013-03-23 03:00:00,
2013-03-22 22:15:00,48.0,47.5,29.71,NNE,22,6.3,-999.0,98,-99.99,,,0.00,Acu-Link.com,2013-03-23 03:15:00,
2013-03-22 22:31:00,47.7,47.1,29.71,NE,45,5.1,-999.0,98,-99.99,,,0.00,Acu-Link.com,2013-03-23 03:31:00,
2013-03-22 22:46:00,47.1,46.6,29.72,NNE,22,5.1,-999.0,98,-99.99,,,0.00,Acu-Link.com,2013-03-23 03:46:00,
2013-03-22 23:31:00,46.2,45.7,29.71,NNW,337,4.7,-999.0,98,-99.99,,,0.00,Acu-Link.com,2013-03-23 04:31:00,
2013-03-22 23:46:00,46.0,45.5,29.70,NNE,22,5.1,-999.0,98,-99.99,,,0.00,Acu-Link.com,2013-03-23 04:46:00,